TimeMST,TemperatureF,Dew PointF,Humidity,Sea Level PressureIn,VisibilityMPH,Wind Direction,Wind SpeedMPH,Gust SpeedMPH,PrecipitationIn,Events,Conditions,WindDirDegrees,DateUTC
12:53 AM,37.0,35.1,93,29.77,8.0,SE,4.6,-,0.01,Rain,Light Rain,140,2013-01-27 07:53:00
1:53 AM,36.0,34.0,93,29.73,7.0,ENE,5.8,-,0.00,,Overcast,70,2013-01-27 08:53:00
2:53 AM,36.0,34.0,93,29.72,4.0,East,4.6,-,N/A,,Overcast,100,2013-01-27 09:53:00
3:08 AM,35.6,35.6,100,29.70,3.0,ESE,3.5,-,N/A,,Overcast,110,2013-01-27 10:08:00
3:15 AM,35.6,35.6,100,29.70,2.5,East,3.5,-,N/A,,Overcast,100,2013-01-27 10:15:00
3:46 AM,35.6,35.6,100,29.70,1.5,ESE,3.5,-,N/A,,Overcast,110,2013-01-27 10:46:00
3:53 AM,36.0,35.1,97,29.71,1.0,East,3.5,-,N/A,,Overcast,100,2013-01-27 10:53:00
4:00 AM,35.6,35.6,100,29.70,0.5,Calm,Calm,-,0.00,Fog-Rain,Light Rain,0,2013-01-27 11:00:00
4:17 AM,35.6,35.6,100,29.69,0.2,Calm,Calm,-,0.00,Fog-Rain,Light Rain,0,2013-01-27 11:17:00
4:53 AM,35.1,34.0,96,29.71,0.2,NNE,4.6,-,0.00,Fog,Fog,30,2013-01-27 11:53:00
5:13 AM,35.6,33.8,93,29.67,0.2,NNE,4.6,-,N/A,Fog,Fog,30,2013-01-27 12:13:00
5:53 AM,35.1,35.1,100,29.72,0.2,Calm,Calm,-,N/A,Fog,Fog,0,2013-01-27 12:53:00
6:53 AM,35.1,34.0,96,29.73,0.2,NNW,4.6,-,N/A,Fog,Fog,340,2013-01-27 13:53:00
7:53 AM,35.1,34.0,96,29.74,0.2,WNW,5.8,-,0.01,Fog,Fog,300,2013-01-27 14:53:00
8:15 AM,35.6,35.6,100,29.71,0.2,NW,8.1,-,N/A,Fog,Fog,310,2013-01-27 15:15:00
8:38 AM,35.6,35.6,100,29.72,0.5,WNW,5.8,-,N/A,Fog,Fog,290,2013-01-27 15:38:00
8:48 AM,35.6,35.6,100,29.72,2.0,NW,6.9,-,N/A,,Overcast,310,2013-01-27 15:48:00
8:53 AM,37.0,36.0,96,29.76,2.5,West,5.8,-,N/A,,Overcast,280,2013-01-27 15:53:00
9:13 AM,37.4,37.4,100,29.71,2.5,WNW,3.5,-,N/A,,Overcast,300,2013-01-27 16:13:00
9:22 AM,37.4,37.4,100,29.71,3.0,NW,4.6,-,N/A,,Overcast,310,2013-01-27 16:22:00
9:31 AM,37.4,37.4,100,29.71,4.0,NW,4.6,-,N/A,,Overcast,310,2013-01-27 16:31:00
9:53 AM,39.9,37.9,93,29.76,6.0,WNW,9.2,-,N/A,,Overcast,290,2013-01-27 16:53:00
10:53 AM,43.0,39.9,89,29.77,7.0,NW,9.2,-,N/A,,Overcast,310,2013-01-27 17:53:00
11:20 AM,44.6,41.0,87,29.72,10.0,NW,10.4,-,N/A,,Overcast,320,2013-01-27 18:20:00
11:53 AM,46.9,42.1,83,29.73,10.0,NNW,11.5,-,N/A,,Overcast,330,2013-01-27 18:53:00
12:53 PM,53.1,42.1,66,29.71,10.0,NNW,10.4,-,N/A,,Partly Cloudy,340,2013-01-27 19:53:00
1:49 PM,55.4,41.0,58,29.70,10.0,NW,6.9,-,N/A,,Mostly Cloudy,320,2013-01-27 20:49:00
1:53 PM,54.0,39.9,59,29.71,10.0,NW,5.8,-,N/A,,Scattered Clouds,310,2013-01-27 20:53:00
2:24 PM,53.6,39.2,58,29.71,10.0,West,3.5,-,N/A,,Mostly Cloudy,280,2013-01-27 21:24:00
2:53 PM,55.0,41.0,59,29.73,10.0,NNE,5.8,-,N/A,,Overcast,20,2013-01-27 21:53:00
3:14 PM,53.6,39.2,58,29.71,10.0,NW,5.8,-,N/A,,Scattered Clouds,310,2013-01-27 22:14:00
3:53 PM,54.0,39.9,59,29.73,10.0,Calm,Calm,-,N/A,,Clear,0,2013-01-27 22:53:00
4:53 PM,48.9,39.0,69,29.75,10.0,SE,3.5,-,N/A,,Clear,130,2013-01-27 23:53:00
5:53 PM,41.0,37.0,86,29.79,10.0,SE,4.6,-,N/A,,Clear,140,2013-01-28 00:53:00
6:53 PM,36.0,34.0,93,29.80,10.0,SSE,5.8,-,N/A,,Clear,150,2013-01-28 01:53:00
7:53 PM,36.0,34.0,93,29.80,10.0,South,5.8,-,N/A,,Clear,170,2013-01-28 02:53:00
8:53 PM,32.0,30.9,96,29.82,10.0,SSE,6.9,-,N/A,,Clear,150,2013-01-28 03:53:00
9:53 PM,33.1,32.0,96,29.82,10.0,Calm,Calm,-,N/A,,Clear,0,2013-01-28 04:53:00
10:53 PM,35.1,34.0,96,29.81,10.0,SSE,5.8,-,N/A,,Clear,160,2013-01-28 05:53:00
11:53 PM,33.1,32.0,96,29.81,4.0,SSE,3.5,-,N/A,,Clear,150,2013-01-28 06:53:00
11:56 PM,33.8,32.0,93,29.77,1.8,SSE,3.5,-,N/A,,Clear,150,2013-01-28 06:56:00